Погода в Нее

Россия / Костромская область     58°17′39″N   43°52′41″E
темп.,
°C
ветер,
м/с
пор.,
м/с
влажн.,
%
обл.,
%
осадки,
мм/ч
давл.,
гПа
погр.,
м
18 мая, вт
вт1800:00+15в3118399 0.0 1017221
03:00+14вюв31193100 1.0 1017278
06:00+16в310895 0.5 1017296
09:00+21юв576758 0.6 1018572
12:00+26юв465128 0.0 10171168
15:00+27вюв5746100 0.0 10161629
18:00+24вюв595998 0.0 1016798
21:00+19вюв4138112 0.1 1016446
19 мая, ср
ср1900:00+17вюв413845 0.1 1017354
03:00+15вюв4128541 0.1 1017316
06:00+17вюв312745 0.0 1017347
09:00+23юв58525 0.0 1016719
12:00+26юв58418 0.0 10161332
15:00+27юв683949 0.0 10151754
18:00+24вюв510525 0.0 1015914
21:00+19вюв413640 0.0 1015389
20 мая, чт
чт2000:00+17юв414730 0.0 1015423
03:00+16юв414786 0.0 1014395
06:00+17юв411751 0.0 1015409
09:00+23юв57543 0.0 1014794
12:00+27юв69353 0.0 10132047
15:00+27юв6103639 0.0 10122482
18:00+24ююв6114955 0.0 10111809
21:00+20юв5126660 0.1 1012980
21 мая, пт
пт2100:00+16ю5128426 0.1 1011945
03:00+13ююв4119040 0.1 1012469
06:00+14ююв5128272 0.0 1011637
09:00+18ю6116596 0.3 10101472
12:00+21ю81351100 0.6 10102114
15:00+19ююз7144945 0.6 10112051
18:00+15ююз61359100 0.0 10121843
21:00+13юз61174100 0.1 10141149
22 мая, сб
сб2200:00+12юз51081100 0.0 1015999
03:00+11з598280 0.1 1018782
06:00+10зюз3580100 0.0 1020374
09:00+15зюз3463100 0.0 1020929
12:00+17юз4651100 0.0 10211679
15:00+17ююз345069 0.0 10201576
18:00+16ююз3459100 0.0 1020666
21:00+12ююз1173100 0.0 102012